Location: Haram ta Haram Freeway
(35.0583°N, 51.4202°E)
Time: 02:10:29
(UTC+04:30)

Hubble Space Telescope - Visible Passes

Search period start: 25 July 2021 00:00
Search period end: 04 August 2021 00:00
Orbit: 535 x 539 km, 28.5° (Epoch: 24 July)

Date Brightness Start Highest point End Pass type
(mag) Time Alt. Az. Time Alt. Az. Time Alt. Az.
25 Jul 1.6 21:51:35 10° WSW 21:55:06 32° S 21:55:06 32° S visible
26 Jul 1.5 21:40:31 10° WSW 21:44:13 32° S 21:44:45 31° SSE visible
27 Jul 1.6 21:29:29 10° WSW 21:33:11 32° S 21:34:19 27° SSE visible
28 Jul 1.7 21:18:29 10° WSW 21:22:09 31° S 21:23:51 22° SE visible
29 Jul 1.9 21:07:30 10° WSW 21:11:07 29° S 21:13:20 18° SE visible
30 Jul 2.0 20:56:32 10° WSW 21:00:03 27° S 21:02:48 14° SE visible
31 Jul 2.2 20:45:36 10° WSW 20:49:00 25° SSW 20:52:16 11° SE visible
01 Aug 2.4 20:34:42 10° WSW 20:37:57 22° SSW 20:41:11 10° SE visible
